This demonstration page uses our WeatherBlox Daily Observations layout. Learn more.

Left ArrowRight Arrow

34.02893, -84.19858

Hourly Observations for June 20, 2020

Temp ( °F °C ) Dew Point ( °F °C ) Humidity (%) Winds ( mph kmh ) Pressure ( in mb ) Visibility ( mi km ) Precip ( " mm )
12:53 am 00:53 Clear with Mist and Fog 66 18.9 66 18.9 100 100 Calm 30.06 1018 6 10 0.00 0.00
1:53 am 01:53 Clear with Mist and Fog 65 18.3 64 17.8 97 97 Calm 30.05 1018 5 8 0.00 0.00
2:53 am 02:53 Clear with Mist and Fog 64 17.8 64 17.8 100 100 Calm 30.03 1017 6 10 0.00 0.00
3:49 am 03:49 Clear with Mist and Fog 63 17 63 17 100 100 Calm 30.05 1018 2 3 0.00 0.00
3:53 am 03:53 Clear with Mist and Fog 64 17.8 63 17.2 96 96 Calm 30.03 1017 2 3 0.00 0.00
3:58 am 03:58 Clear with Mist and Fog 63 17.2 63 17.2 100 100 Calm 30.05 1018 3 5 0.00 0.00
4:53 am 04:53 Clear with Mist and Fog 63 17.2 63 17.2 100 100 Calm 30.03 1017 6 10 0.00 0.00
5:53 am 05:53 Clear with Mist and Fog 62 16.7 62 16.7 100 100 Calm 30.05 1018 4 6 0.00 0.00
6:53 am 06:53 Sunny with Mist and Fog 62 16.7 62 16.7 100 100 Calm 30.08 1019 6 10 0.00 0.00
7:53 am 07:53 Sunny 68 20 65 18.3 90 90 Calm 30.07 1018 9 14 0.00 0.00
8:53 am 08:53 Sunny 72 22.2 66 18.9 82 82 NNW 5 7 30.07 1018 10 16 0.00 0.00
9:53 am 09:53 Sunny 77 25 66 18.9 69 69 NNW 5 7 30.07 1018 10 16 0.00 0.00
10:53 am 10:53 Sunny 81 27.2 65 18.3 58 58 NNW 8 13 30.07 1018 10 16 0.00 0.00
11:53 am 11:53 Sunny 83 28.3 64 17.8 53 53 NNW 9 15 30.06 1018 10 16 0.00 0.00
12:53 pm 12:53 Sunny 84 28.9 64 17.8 51 51 N 8 13 30.06 1018 10 16 0.00 0.00
1:53 pm 13:53 Sunny 85 29.4 64 17.8 50 50 W 6 9 30.04 1017 10 16 0.00 0.00
2:53 pm 14:53 Sunny 87 30.6 62 16.7 43 43 NNW 9 15 30.02 1017 10 16 0.00 0.00
3:53 pm 15:53 Sunny 88 31.1 64 17.8 45 45 N 10 17 30.00 1016 10 16 0.00 0.00
4:53 pm 16:53 Sunny 88 31.1 63 17.2 43 43 NNE 7 11 29.98 1015 10 16 0.00 0.00
5:53 pm 17:53 Sunny 88 31.1 61 16.1 40 40 VRB 7 11 29.97 1015 10 16 0.00 0.00
6:53 pm 18:53 Sunny 87 30.6 61 16.1 42 42 NNW 8 13 29.96 1015 10 16 0.00 0.00
7:53 pm 19:53 Sunny 85 29.4 61 16.1 45 45 NNW 5 7 29.96 1014 10 16 0.00 0.00
8:53 pm 20:53 Clear 79 26.1 63 17.2 58 58 N 5 7 29.96 1014 10 16 0.00 0.00
9:53 pm 21:53 Clear 75 23.9 65 18.3 71 71 Calm 29.97 1015 10 16 0.00 0.00
10:53 pm 22:53 Clear 72 22.2 65 18.3 79 79 Calm 29.98 1015 10 16 0.00 0.00
11:53 pm 23:53 Clear 71 21.7 66 18.9 84 84 Calm 29.98 1015 10 16 0.00 0.00

Powered by AerisWeather